Change the Weather History Date:

Wednesday, June 4, 2014

  Actual Average Record
Temperature  
Mean Temperature 68 °F -  
Max Temperature 79 °F 82 °F 86 °F (1998)
Min Temperature 56 °F 61 °F 50 °F (2006)
Cooling Degree Days 2    
Growing Degree Days 18 (Base 50)    
Moisture  
Dew Point 60 °F    
Average Humidity 72    
Maximum Humidity 97    
Minimum Humidity 40    
Precipitation  
Precipitation 0.00 in 0.02 in - ()
Sea Level Pressure  
Sea Level Pressure 29.92 in    
Wind  
Wind Speed 4 mph ()    
Max Wind Speed 15 mph    
Max Gust Speed -    
Visibility 7.6 miles    
Events      
Averages and records for this station are not official NWS values.
T = Trace of Precipitation, MM = Missing Value Source: Averaged Metar Reports

Daily Weather History Graph

Daily Weather History Graph

Search for Another Location

Airport or City:

Trip Planner

Search our weather history database for the weather conditions in past years. The results will help you decide how hot, cold, wet, or windy it might be!

Date:

Astronomy

Jun. 04, 2014 Rise Set
Actual Time 6:22 AM CEST 9:12 PM CEST
Civil Twilight 5:50 AM CEST 9:44 PM CEST
Nautical Twilight 5:10 AM CEST 10:24 PM CEST
Astronomical Twilight 4:24 AM CEST 11:11 PM CEST
Moon 12:26 PM CEST (6/4) 1:04 AM CEST (6/4)
Length of Visible Light 15h 53m
Length of Day
14h 49m
Waxing Crescent, 36% of the Moon is Illuminated
Jun 4
Waxing Crescent
Jun 5
First Quarter
Jun 13
Full
Jun 19
Last Quarter
Jun 27
New

Hourly Weather History & Observations

Time (CEST) Temp. Dew Point Humidity Pressure Visibility Wind Dir Wind Speed Gust Speed Precip Events Conditions
12:00 AM 66 °F 60 °F 76% 30.00 in - WSW 4.6 mph - -  
12:00 AM 66.2 °F 59.0 °F 78% 29.98 in 6.2 mi SSE 2.3 mph - N/A   Partly Cloudy
12:30 AM 66.2 °F 60.8 °F 83% 29.98 in 6.2 mi Calm Calm - N/A   Partly Cloudy
1:00 AM 63 °F 58 °F 80% 29.99 in - Calm Calm - -  
1:00 AM 64.4 °F 59.0 °F 83% 29.98 in 6.2 mi Calm Calm - N/A   Partly Cloudy
1:30 AM 60.8 °F 59.0 °F 94% 29.98 in 6.2 mi Calm Calm - N/A   Partly Cloudy
2:00 AM 60 °F 57 °F 87% 29.97 in 9 mi ENE 2.3 mph - -   Scattered Clouds
2:00 AM 60.8 °F 57.2 °F 88% 29.95 in 6.2 mi ENE 2.3 mph - N/A   Partly Cloudy
2:30 AM 60.8 °F 57.2 °F 88% 29.95 in 6.2 mi Calm Calm - N/A   Partly Cloudy
3:00 AM 58 °F 56 °F 90% 29.96 in - East 2.3 mph - -  
3:00 AM 59.0 °F 55.4 °F 88% 29.95 in 6.2 mi Calm Calm - N/A   Partly Cloudy
3:30 AM 57.2 °F 55.4 °F 94% 29.95 in 6.2 mi Calm Calm - N/A   Partly Cloudy
4:00 AM 58 °F 57 °F 94% 29.95 in - NE 2.3 mph - -  
4:00 AM 57.2 °F 55.4 °F 94% 29.92 in 6.2 mi NE 1.2 mph - N/A   Partly Cloudy
4:30 AM 57.2 °F 55.4 °F 94% 29.92 in 6.2 mi NNE 1.2 mph - N/A   Partly Cloudy
5:00 AM 57 °F 56 °F 97% 29.93 in 9 mi North 2.3 mph - -   Scattered Clouds
5:00 AM 57.2 °F 55.4 °F 94% 29.92 in 6.2 mi Variable 1.2 mph - N/A   Partly Cloudy
5:30 AM 59.0 °F 57.2 °F 94% 29.92 in 6.2 mi Calm Calm - N/A   Partly Cloudy
6:00 AM 59 °F 58 °F 97% 29.93 in - Calm Calm - -  
6:00 AM 59.0 °F 57.2 °F 94% 29.92 in 6.2 mi ENE 1.2 mph - N/A   Scattered Clouds
6:30 AM 59.0 °F 57.2 °F 94% 29.92 in 6.2 mi Calm Calm - N/A   Scattered Clouds
7:00 AM 60 °F 57 °F 86% 29.93 in - Calm Calm - -  
7:00 AM 59.0 °F 57.2 °F 94% 29.92 in 6.2 mi Calm Calm - N/A   Scattered Clouds
7:30 AM 60.8 °F 57.2 °F 88% 29.92 in 6.2 mi Calm Calm - N/A   Partly Cloudy
8:00 AM 64 °F 60 °F 81% 29.93 in 9 mi Calm Calm - -   Partly Cloudy
8:00 AM 64.4 °F 60.8 °F 88% 29.92 in 6.2 mi Calm Calm - N/A   Scattered Clouds
8:30 AM 66.2 °F 62.6 °F 88% 29.92 in 6.2 mi Variable 1.2 mph - N/A   Scattered Clouds
9:00 AM 71 °F 62 °F 66% 29.92 in - Calm Calm - -  
9:00 AM 69.8 °F 62.6 °F 78% 29.92 in 6.2 mi Calm Calm - N/A   Partly Cloudy
9:30 AM 69.8 °F 62.6 °F 78% 29.92 in 6.2 mi WSW 1.2 mph - N/A   Partly Cloudy
10:00 AM 74 °F 60 °F 53% 29.91 in - SW 6.9 mph - -  
10:00 AM 71.6 °F 60.8 °F 69% 29.92 in 6.2 mi Variable 2.3 mph - N/A   Partly Cloudy
10:30 AM 73.4 °F 60.8 °F 65% 29.92 in 6.2 mi WSW 5.8 mph - N/A   Partly Cloudy
11:00 AM 75 °F 59 °F 47% 29.91 in 19 mi SW 9.2 mph - -   Scattered Clouds
11:00 AM 73.4 °F 59.0 °F 61% 29.89 in 6.2 mi WSW 8.1 mph - N/A   Partly Cloudy
11:30 AM 73.4 °F 59.0 °F 61% 29.89 in 6.2 mi WSW 9.2 mph - N/A   Partly Cloudy
12:00 PM 76 °F 59 °F 46% 29.90 in - WSW 8.1 mph - -  
12:00 PM 73.4 °F 59.0 °F 61% 29.89 in 6.2 mi WSW 8.1 mph - N/A   Partly Cloudy
12:30 PM 75.2 °F 60.8 °F 61% 29.89 in 6.2 mi West 11.5 mph - N/A   Partly Cloudy
1:00 PM 77 °F 60 °F 46% 29.90 in - SW 12.7 mph - -  
1:00 PM 75.2 °F 60.8 °F 61% 29.89 in 6.2 mi WSW 11.5 mph - N/A   Partly Cloudy
1:30 PM 75.2 °F 60.8 °F 61% 29.89 in - WSW 13.8 mph - N/A   Clear
2:00 PM 75.2 °F 60.8 °F 61% 29.89 in 6.2 mi WSW 11.5 mph - N/A   Partly Cloudy
2:30 PM 77.0 °F 60.8 °F 57% 29.89 in 6.2 mi SW 10.4 mph - N/A   Partly Cloudy
3:00 PM 78 °F 60 °F 44% 29.89 in - SSW 12.7 mph - -  
3:00 PM 75.2 °F 59.0 °F 57% 29.89 in - SW 10.4 mph - N/A   Clear
3:30 PM 75.2 °F 59.0 °F 57% 29.89 in - SW 12.7 mph - N/A   Clear
4:00 PM 78 °F 63 °F 51% 29.89 in - SSW 15.0 mph - -  
4:00 PM 75.2 °F 62.6 °F 65% 29.89 in - SW 13.8 mph - N/A   Clear
5:00 PM 78 °F 63 °F 51% 29.88 in 19 mi SSW 12.7 mph - -   Clear
5:00 PM 75.2 °F 62.6 °F 65% 29.89 in - SW 12.7 mph - N/A   Clear
5:30 PM 77.0 °F 60.8 °F 57% 29.86 in - SSW 10.4 mph - N/A   Clear
6:00 PM 79 °F 60 °F 41% 29.88 in - SSW 10.4 mph - -  
6:00 PM 77.0 °F 60.8 °F 57% 29.86 in - SW 10.4 mph - N/A   Clear
6:30 PM 77.0 °F 62.6 °F 61% 29.86 in - SSW 8.1 mph - N/A   Clear
7:00 PM 77 °F 63 °F 54% 29.88 in - SSW 6.9 mph - -  
7:00 PM 75.2 °F 64.4 °F 69% 29.86 in - SW 6.9 mph - N/A   Clear
7:30 PM 75.2 °F 62.6 °F 65% 29.89 in - SW 4.6 mph - N/A   Clear
8:00 PM 77 °F 57 °F 40% 29.90 in 19 mi South 2.3 mph - -   Clear
8:00 PM 77.0 °F 57.2 °F 50% 29.89 in - Variable 2.3 mph - N/A   Clear
8:30 PM 75.2 °F 60.8 °F 61% 29.89 in - Variable 1.2 mph - N/A   Clear
9:00 PM 73 °F 63 °F 64% 29.91 in - WNW 1.2 mph - -  
9:00 PM 73.4 °F 62.6 °F 69% 29.89 in - Variable 1.2 mph - N/A   Clear
9:30 PM 73.4 °F 60.8 °F 65% 29.92 in - ENE 10.4 mph - N/A   Clear
10:00 PM 70 °F 64 °F 75% 29.93 in - East 12.7 mph - -  
10:00 PM 69.8 °F 62.6 °F 78% 29.92 in - ENE 12.7 mph - N/A   Clear
10:30 PM 69.8 °F 62.6 °F 78% 29.92 in - ENE 13.8 mph - N/A   Clear
11:00 PM 69 °F 64 °F 80% 29.95 in 11 mi ENE 13.8 mph - -   Scattered Clouds
11:00 PM 69.8 °F 64.4 °F 83% 29.95 in - ENE 13.8 mph - N/A   Clear
11:30 PM 68.0 °F 62.6 °F 83% 29.95 in 6.2 mi ENE 13.8 mph - N/A   Partly Cloudy